{"data":{"norad_id":47895,"intl_designator":"2021-021AM","name":"STARLINK-2355","alt_names":[],"object_type":"PAYLOAD","status":"ACTIVE","operator":null,"country":"US","launch_date":"2021-03-14","launch_site_code":"AFETR","launch_vehicle":null,"mission":null,"orbit_class":"UNKNOWN","rcs_meters":null,"size_class":null,"mass_kg":null,"dimensions":null,"purposes":["comms"],"wikipedia_slug":null,"has_3d_model":false,"image_url":null,"decayed_at":null,"tle_current":{"epoch":"2026-05-24T16:10:06.697632Z","epoch_age_seconds":103361,"freshness":"FRESH","line1":"1 47895U 21021AM  26144.67368863  .00009957  00000+0  33183-3 0  9993","line2":"2 47895  53.1591 274.7547 0001155  74.2902 285.8227 15.31735786287862","mean_motion":15.31735786,"eccentricity":0.0001155,"inclination_deg":53.1591,"raan_deg":274.7547,"arg_perigee_deg":74.2902,"mean_anomaly_deg":285.8227,"bstar":0.00033183,"rev_number":28786,"period_min":94.010991527491,"perigee_km":469.84228812662,"apogee_km":471.42435407079,"semimajor_km":6848.7703210987,"source":"CELESTRAK","updated_at":"2026-05-25T13:38:16.612061Z"}}}